Regional Weather Roundup
Issued by NWS

Home | Current Version | Previous Version | Graphics & Text | Print | Product List | Glossary On
Versions: 1 2 3 4 5 6 7 8 9 10 11 12 13 14 15 16 17 18 19 20 21 22 23 24 25 26 27
000
ASUS45 KTFX 120010
RWRMT
MONTANA REGIONAL WEATHER ROUNDUP
NATIONAL WEATHER SERVICE GREAT FALLS MT
500 PM MST MON DEC 11 2017

NOTE: "FAIR" INDICATES FEW OR NO CLOUDS BELOW 12000 FEET WITH NO
SIGNIFICANT WEATHER AND/OR OBSTRUCTIONS TO VISIBILITY.

MTZ001>007-043-120100-
WEST OF THE DIVIDE

CITY           SKY/WX    TMP DP  RH WIND       PRES   REMARKS
KALISPELL      CLOUDY    25  21  85 CALM      30.59S
MISSOULA       FAIR      20  17  88 CALM      30.57R FOG
BUTTE          FAIR      30  17  58 S3        30.46S
MULLAN PASS    FAIR      42   5  21 SW5       30.46S
ANACONDA         N/A     28  18  64 SW5       30.47S
DEER LODGE       N/A     25  18  74 W5        30.50S
EUREKA           N/A     23  18  80 MISG      30.62S
HAMILTON         N/A     18  16  93 CALM      30.54S
LIBBY            N/A     27  21  80 CALM      30.60S
RONAN            N/A     26  23  88 CALM      30.56S
$$

MTZ008-052>055-120100-
SOUTHWEST MONTANA

CITY           SKY/WX    TMP DP  RH WIND       PRES   REMARKS
BOZEMAN        FAIR      28  18  66 S5        30.46F
DILLON         FAIR      33  15  47 S5        30.45F
W YELLOWSTONE  FAIR      25  12  58 CALM      30.53R
ENNIS          CLOUDY    30  21  69 E5        30.49F
THREE FORKS      N/A     21  16  81 CALM      30.40F
$$

MTZ009-010-012-014-046-048-049-054-120100-
EAST SLOPES AND CENTRAL MONTANA

CITY           SKY/WX    TMP DP  RH WIND       PRES   REMARKS
CUT BANK       FAIR      40  18  41 SE6       30.33S
GREAT FALLS    FAIR      44  12  27 S13       30.36S
MALMSTROM AFB  FAIR      37  18  46 SW13      30.35S WCI  29
HELENA         FAIR      29  21  72 CALM      30.47S
BOWMANS CRNR   FAIR      37  12  35 S16       30.35S WCI  27
CHOTEAU          N/A     41  18  38 S6        30.35S
FAIRFIELD      FAIR      40  12  32 CALM      30.34S
POWER          FAIR      34  15  45 S5        30.34S
RAYNESFORD     FAIR      43  20  39 E3        30.36R
ULM            FAIR      41  13  32 S6        30.36S
$$

MTZ011-013-016-021-045-047-050-051-120100-
NORTH CENTRAL MONTANA

CITY           SKY/WX    TMP DP  RH WIND       PRES   REMARKS
HAVRE          FAIR      33  20  58 SE5       30.36F
LEWISTOWN      FAIR      35  23  61 S5        30.37S
N BAR RANCH    FAIR      36  18  48 NW6       30.40S WCI  31
CHINOOK          N/A     37  19  48 CALM      30.36F
DENTON         FAIR      43  17  35 MISG      30.33F
GEYSER         FAIR      35  19  52 CALM      30.35S
GRASS RANGE    FAIR      38  21  50 W5        30.35S
STANFORD       FAIR      41  20  42 SW3       30.36F
WINIFRED       FAIR      42  14  32 SE7       30.35F
$$

MTZ017>020-022>027-061-062-120100-
NORTHEAST MONTANA

CITY           SKY/WX    TMP DP  RH WIND       PRES   REMARKS
GLASGOW        FAIR      34  24  67 W6        30.37F WCI  29
GLENDIVE       FAIR      28  23  81 W10       30.39R WCI  19
JORDAN           N/A     25  17  72 CALM      30.38F
SIDNEY         CLOUDY    35  28  75 NW5       30.37S
WOLF POINT     FAIR      32  24  72 W8        30.38S WCI  25
MALTA          CLEAR     28  18  64 CALM      30.37F
PLENTYWOOD       N/A     32  28  86 CALM      30.33F
POPLAR           N/A     36  25  64 W6        30.38S WCI  31
$$

MTZ028>42-056>058-120100-
SOUTHCENTRAL AND SOUTHEAST MONTANA

CITY           SKY/WX    TMP DP  RH WIND       PRES   REMARKS
BAKER          FAIR      33  26  75 NW14      30.37S WCI  23
BILLINGS       FAIR      43  17  35 CALM      30.39S
LIVINGSTON     FAIR      39  17  41 W15       30.41S WCI  31
MILES CITY     FAIR      37  25  61 NW5       30.39F
BIG TIMBER     CLEAR     45  10  24 W17       30.40S
FORSYTH          N/A     37  19  48 CALM      30.40F
LAUREL           N/A     46  18  31 CALM      30.40S
$$

REGIONAL REPORTS...DAKOTAS

CITY           SKY/WX    TMP DP  RH WIND       PRES   REMARKS
WILLISTON      CLOUDY    35  29  78 W6        30.35S WCI  30
MINOT          FAIR      26  19  74 W8        30.31S WCI  18
DICKINSON      CLOUDY    31  29  92 NW7       30.32R WCI  24
BEACH          CLOUDY    34  25  69 NW8       30.38F WCI  27
CROSBY         CLOUDY    32  30  93 W6        30.33S WCI  26
TIOGA          CLOUDY    30  30 100 NW8       30.33S WCI  23
WATFORD CITY   CLOUDY    34  30  86 W6        30.34S WCI  29
BISMARCK       FAIR      28  20  71 N5        30.34R
GRAND FORKS    FAIR       8   5  87 N8        30.34R WCI  -4
FARGO          FAIR      14   8  77 N17       30.33R WCI  -3
BUFFALO SD       N/A     35  25  66 NW16      30.30S WCI  25
RAPID CITY     FAIR      35  22  58 N13       30.36R WCI  26
$$

REGIONAL REPORTS...WYOMING/IDAHO/WASHINGTON

CITY           SKY/WX    TMP DP  RH WIND       PRES   REMARKS
GILLETTE       FAIR      35  15  44 NW12      30.39S WCI  27
SHERIDAN       FAIR      34  18  52 CALM      30.40S
BUFFALO WY     FAIR      35  13  40 NW8       30.41S WCI  29
CODY           FAIR      39  11  31 S5        30.42S
YELLOWSTONE LA   N/A     24  20  84 CALM      30.54S
IDAHO FALLS    FAIR      25  21  85 CALM      30.54S
SALMON         CLOUDY    17  13  84 CALM      30.68S
BOISE          CLOUDY    25  21  85 NW6       30.64S WCI  18
SPOKANE        FAIR      27  25  92 SW7       30.54S WCI  19
$$

REGIONAL REPORTS...ALBERTA

CITY           SKY/WX    TMP DP  RH WIND       PRES   REMARKS
EDMONTON       MOCLDY    39  23  52 SW6       30.15F
CALGARY        MOCLDY    41  14  33 S5        30.26F
LETHBRIDGE     MOCLDY    36  23  60 CALM      30.30S
MEDICINE HAT   PTCLDY    34  25  69 S2        30.30F
$$

REGIONAL REPORTS...SASKATCHEWAN

CITY           SKY/WX    TMP DP  RH WIND       PRES   REMARKS
SWIFT CURRENT  CLEAR     28  21  74 SW9       30.28F WCI  20
REGINA         PTCLDY    28  27  93 SW7       30.27F WCI  21
SASKATOON      PTCLDY    28  25  86 SW12      30.25F WCI  18
$$




USA.gov is the U.S. government's official web portal to all federal, state and local government web resources and services.